Casper, WY

8:09 AM MST on December 07, 2019 (GMT -0700)
Natrona County International

Weather History for KCPR - October, 2019

Change the Weather History Date:

Tuesday, October 29, 2019

  Actual Average Record
Temperature  
Mean Temperature 0 °F 41 °F  
Max Temperature 8 °F 54 °F 75 °F (1968)
Min Temperature -9 °F 28 °F -1 °F (1971)
Degree Days  
Heating Degree Days 65 24  
Month to date heating degree days 766 566  
Since 1 July heating degree days 937 851  
Cooling Degree Days 0 0  
Month to date cooling degree days 0 0  
Year to date cooling degree days 441 422  
Moisture  
Dew Point -2 °F    
Average Humidity 78    
Maximum Humidity 87    
Minimum Humidity 69    
Precipitation  
Precipitation 0.03 in 0.04 in 0.41 in (1972)
Month to date precipitation 1.29 1.05  
Year to date precipitation 11.99 11.21  
Snow  
Snow 0.80 in 0.30 in - ()
Month to date snowfall 13.9 6.8  
Since 1 July snowfall 13.9 8.6  
Since 1 September snowfall 13.9 8.6  
Snow Depth 2.00 in    
Sea Level Pressure  
Sea Level Pressure 30.33 in    
Wind  
Wind Speed 11 mph (NE)    
Max Wind Speed 23 mph    
Max Gust Speed 28 mph    
Visibility 5 miles    
Events Snow    
T = Trace of Precipitation, MM = Missing Value Source: NWS Daily Summary

Daily Weather History Graph

Daily Weather History Graph

Search for Another Location

Airport or City:

Astronomy

Oct. 29, 2019 Rise Set
Actual Time 7:36 AM MDT 6:02 PM MDT
Civil Twilight 7:06 AM MDT 6:31 PM MDT
Nautical Twilight 6:33 AM MDT 7:04 PM MDT
Astronomical Twilight 6:00 AM MDT 7:37 PM MDT
Moon 9:14 AM MDT (10/29) 7:26 PM MDT (10/29)
Length of Visible Light 11h 24m
Length of Day
10h 26m
Waxing Crescent, 3% of the Moon is Illuminated
Oct 29
Waxing Crescent
Nov 4
First Quarter
Nov 12
Full
Nov 19
Last Quarter
Nov 26
New

Hourly Weather History & Observations

Time (MDT) Temp. Windchill Dew Point Humidity Pressure Visibility Wind Dir Wind Speed Gust Speed Precip Events Conditions
12:53 AM 7.0 °F -11.6 °F 1.9 °F 80% 30.31 in 5.0 mi NNE 17.3 mph - 0.00 in Snow Light Snow
1:42 AM 6.1 °F -12.8 °F 1.0 °F 80% 30.11 in 9.0 mi NE 17.3 mph - 0.00 in   Overcast
1:53 AM 6.1 °F -11.6 °F 1.0 °F 80% 30.33 in 5.0 mi NE 15.0 mph - 0.00 in Snow Light Snow
2:11 AM 6.1 °F -13.8 °F 1.0 °F 80% 30.11 in 2.0 mi NE 19.6 mph 28.8 mph 0.00 in Snow Light Snow
2:37 AM 6.1 °F -12.8 °F 1.0 °F 80% 30.12 in 1.8 mi NE 17.3 mph - 0.00 in Snow Light Snow
2:46 AM 6.1 °F -14.8 °F 1.0 °F 80% 30.12 in 2.0 mi NE 21.9 mph - 0.00 in Snow Light Snow
2:53 AM 5.0 °F -15.7 °F 1.0 °F 84% 30.32 in 2.0 mi NE 20.7 mph - 0.00 in Snow Light Snow
3:32 AM 5.0 °F -15.2 °F -0.0 °F 80% 30.12 in 3.0 mi NE 19.6 mph - 0.00 in Snow Light Snow
3:43 AM 5.0 °F -15.2 °F -2.0 °F 73% 30.12 in 5.0 mi NE 19.6 mph - 0.00 in Snow Light Snow
3:53 AM 5.0 °F -13.6 °F -0.9 °F 76% 30.33 in 9.0 mi NE 16.1 mph - 0.00 in   Overcast
4:53 AM 5.0 °F -12.3 °F -0.9 °F 76% 30.34 in 4.0 mi NE 13.8 mph - N/A   Haze
5:13 AM 5.0 °F -10.8 °F -0.0 °F 80% 30.14 in 2.5 mi ENE 11.5 mph - N/A   Haze
5:19 AM 5.0 °F -10.8 °F -0.0 °F 80% 30.14 in 1.8 mi ENE 11.5 mph - 0.01 in Snow Light Snow
5:53 AM 5.0 °F -13.0 °F -0.0 °F 80% 30.36 in 2.5 mi NE 15.0 mph - 0.01 in   Haze
6:00 AM 5.0 °F -14.7 °F -0.0 °F 80% 30.15 in 3.0 mi NE 18.4 mph - N/A   Haze
6:23 AM 5.0 °F -13.0 °F -0.0 °F 80% 30.16 in 1.8 mi ENE 15.0 mph - 0.00 in Snow Light Snow
6:48 AM 5.0 °F -12.3 °F -0.4 °F 78% 30.16 in 2.0 mi ENE 13.8 mph - 0.00 in   Haze
6:53 AM 5.0 °F -12.3 °F 1.0 °F 84% 30.39 in 2.0 mi ENE 13.8 mph - 0.00 in   Overcast
7:21 AM 5.0 °F -12.3 °F -0.0 °F 80% 30.18 in 1.8 mi NE 13.8 mph - N/A   Haze
7:38 AM 3.9 °F -15.6 °F -2.0 °F 76% 30.19 in 3.0 mi NE 17.3 mph - N/A   Haze
7:49 AM 3.2 °F -15.9 °F -0.4 °F 85% 30.19 in 2.5 mi NE 16.1 mph - N/A   Haze
7:53 AM 3.9 °F -14.3 °F -0.9 °F 80% 30.43 in 2.5 mi NE 15.0 mph - N/A   Haze
8:14 AM 3.9 °F -14.3 °F -0.9 °F 80% 30.20 in 1.8 mi NE 15.0 mph - N/A   Haze
8:31 AM 3.9 °F -13.0 °F -0.9 °F 80% 30.20 in 2.0 mi NE 12.7 mph - N/A   Haze
8:46 AM 3.9 °F -12.2 °F -0.0 °F 84% 30.21 in 1.5 mi ENE 11.5 mph - 0.00 in Snow Light Snow
8:53 AM 5.0 °F -11.6 °F -0.0 °F 80% 30.45 in 1.5 mi ENE 12.7 mph - 0.00 in   Haze
9:43 AM 5.0 °F -12.3 °F -0.0 °F 80% 30.23 in 0.8 mi ENE 13.8 mph - 0.01 in Snow Light Snow
9:53 AM 5.0 °F -11.6 °F -0.0 °F 80% 30.48 in 0.8 mi ENE 12.7 mph - 0.01 in Snow Light Snow
10:46 AM 6.1 °F -11.6 °F -0.0 °F 76% 30.24 in 1.0 mi ENE 15.0 mph - 0.01 in Snow Light Snow
10:53 AM 6.1 °F -11.6 °F -0.0 °F 76% 30.49 in 1.0 mi NE 15.0 mph - 0.01 in Snow Light Snow
11:22 AM 6.1 °F -12.2 °F -0.9 °F 73% 30.24 in 3.0 mi NE 16.1 mph - 0.00 in   Haze
11:51 AM 6.8 °F -10.0 °F -0.4 °F 72% 30.24 in 3.0 mi NE 13.8 mph - 0.00 in   Haze
11:53 AM 7.0 °F -9.8 °F -0.0 °F 73% 30.51 in 2.5 mi NE 13.8 mph - 0.00 in Snow Light Snow
12:06 PM 7.0 °F -10.4 °F -0.0 °F 73% 30.24 in 8.0 mi NE 15.0 mph - 0.00 in   Overcast
12:17 PM 7.0 °F -10.4 °F -0.0 °F 73% 30.24 in 8.0 mi NE 15.0 mph - 0.00 in   Overcast
12:53 PM 7.0 °F -10.4 °F -2.0 °F 67% 30.50 in 10.0 mi NE 15.0 mph - 0.00 in   Scattered Clouds
1:53 PM 7.0 °F -7.5 °F -2.0 °F 67% 30.49 in 10.0 mi NE 10.4 mph - N/A   Partly Cloudy
2:30 PM 8.1 °F -7.0 °F -0.9 °F 67% 30.22 in 10.0 mi NE 11.5 mph - N/A   Mostly Cloudy
2:53 PM 8.1 °F -8.4 °F -0.9 °F 67% 30.48 in 10.0 mi NE 13.8 mph - N/A   Scattered Clouds
3:04 PM 7.0 °F -9.1 °F -0.9 °F 70% 30.21 in 10.0 mi NE 12.7 mph - N/A   Mostly Cloudy
3:53 PM 8.1 °F -6.2 °F -0.9 °F 67% 30.48 in 10.0 mi NNE 10.4 mph - 0.00 in   Overcast
4:53 PM 5.0 °F -8.1 °F -2.9 °F 70% 30.49 in 10.0 mi NE 8.1 mph - N/A   Scattered Clouds
5:53 PM 1.9 °F -9.2 °F -5.1 °F 72% 30.51 in 10.0 mi NE 5.8 mph - N/A   Clear
6:53 PM -4.0 °F - -9.0 °F 79% 30.56 in 10.0 mi Calm Calm - N/A   Clear
7:53 PM -8.0 °F -19.2 °F -11.0 °F 86% 30.59 in 10.0 mi West 4.6 mph - N/A   Clear
8:53 PM -8.0 °F -19.2 °F -11.9 °F 83% 30.62 in 10.0 mi WSW 4.6 mph - N/A   Clear
9:53 PM -6.0 °F -21.5 °F -9.9 °F 83% 30.60 in 10.0 mi SW 8.1 mph - N/A   Clear
10:53 PM -6.0 °F -21.5 °F -11.0 °F 79% 30.60 in 10.0 mi West 8.1 mph - N/A   Clear
11:53 PM -6.0 °F -22.6 °F -11.0 °F 79% 30.59 in 10.0 mi SW 9.2 mph - N/A   Clear